BAW8DS KLAX-EGLL

Flight info

Callsign BAW8DS
Flight time N/A
Altitude 33000
Route OSHNN1 BEALE DCT BAWER DCT HVE DCT EDLES DCT JNC DCT SXW DCT SNY DCT KUTCH DCT ONL DCT TEYOU DCT HSTIN DCT HENDR/N0487F350 DCT SHEAY DCT EEGEE DCT WODEV DCT SSM DCT DASUG DCT MEPKA DCT MT DCT ROBBE DCT MUNBO DCT BORUB DCT YYR DCT JANJO/M084F350 DCT 55N050W 5630N04000W 57N030W 5630N02000W DCT PIKIL/N0488F350 DCT SOVED DCT REVNU DCT BOFUM Q37 MALUD Q38 NUGRA
Aircraft B77W/H-SDE1E2E3FGHIJ2J3J4J5M1RWXY/LB1D1

Departure

Time 2026-05-08 00:21
Airport Los Angeles International Airport (KLAX)

Arrival

Time N/A
Airport London Heathrow Airport (EGLL)
Time Latitude Longitude Altitude Speed Heading
2026-05-07 23:49 33.94089 -118.40931 100 ft 0 kts 262°
2026-05-08 00:06 33.94089 -118.40930 100 ft 2 kts 262°
2026-05-08 00:06 33.94092 -118.40910 100 ft 2 kts 259°
2026-05-08 00:06 33.94096 -118.40891 98 ft 2 kts 251°
2026-05-08 00:07 33.94100 -118.40879 99 ft 2 kts 245°
2026-05-08 00:07 33.94112 -118.40856 99 ft 2 kts 223°
2026-05-08 00:07 33.94125 -118.40845 99 ft 2 kts 195°
2026-05-08 00:07 33.94140 -118.40843 99 ft 1 kts 176°
2026-05-08 00:08 33.94143 -118.40843 99 ft 0 kts 175°
2026-05-08 00:11 33.94128 -118.40841 100 ft 5 kts 174°
2026-05-08 00:11 33.94101 -118.40837 101 ft 6 kts 173°
2026-05-08 00:11 33.94059 -118.40831 101 ft 6 kts 173°
2026-05-08 00:11 33.94016 -118.40825 102 ft 7 kts 173°
2026-05-08 00:12 33.93965 -118.40818 103 ft 7 kts 173°
2026-05-08 00:12 33.93916 -118.40801 102 ft 7 kts 147°
2026-05-08 00:12 33.93874 -118.40764 104 ft 7 kts 144°
2026-05-08 00:12 33.93821 -118.40712 106 ft 7 kts 122°
2026-05-08 00:13 33.93813 -118.40671 107 ft 8 kts 100°
2026-05-08 00:13 33.93810 -118.40609 108 ft 8 kts 78°
2026-05-08 00:13 33.93821 -118.40546 108 ft 8 kts 78°
2026-05-08 00:13 33.93829 -118.40483 108 ft 8 kts 81°
2026-05-08 00:14 33.93838 -118.40419 108 ft 8 kts 82°
2026-05-08 00:14 33.93845 -118.40356 108 ft 8 kts 82°
2026-05-08 00:14 33.93852 -118.40284 108 ft 10 kts 83°
2026-05-08 00:14 33.93861 -118.40185 109 ft 13 kts 84°
2026-05-08 00:15 33.93871 -118.40080 109 ft 13 kts 81°
2026-05-08 00:15 33.93881 -118.39976 109 ft 13 kts 83°
2026-05-08 00:15 33.93890 -118.39871 109 ft 13 kts 83°
2026-05-08 00:15 33.93901 -118.39767 108 ft 13 kts 83°
2026-05-08 00:16 33.93912 -118.39662 108 ft 13 kts 82°
2026-05-08 00:16 33.93923 -118.39560 108 ft 13 kts 82°
2026-05-08 00:16 33.93934 -118.39456 107 ft 13 kts 83°
2026-05-08 00:16 33.93944 -118.39351 106 ft 13 kts 83°
2026-05-08 00:17 33.93956 -118.39232 108 ft 19 kts 83°
2026-05-08 00:17 33.93974 -118.39042 107 ft 24 kts 83°
2026-05-08 00:17 33.93998 -118.38844 106 ft 24 kts 82°
2026-05-08 00:17 33.94019 -118.38646 107 ft 24 kts 83°
2026-05-08 00:18 33.94036 -118.38447 108 ft 24 kts 84°
2026-05-08 00:18 33.94055 -118.38249 108 ft 24 kts 84°
2026-05-08 00:18 33.94073 -118.38097 107 ft 9 kts 81°
2026-05-08 00:18 33.94076 -118.38049 107 ft 0 kts 98°
2026-05-08 00:19 33.94069 -118.38031 108 ft 8 kts 116°
2026-05-08 00:19 33.94019 -118.38007 111 ft 8 kts 187°
2026-05-08 00:19 33.93983 -118.38056 111 ft 8 kts 253°
2026-05-08 00:20 33.93978 -118.38081 114 ft 1 kts 262°
2026-05-08 00:20 33.93967 -118.38179 111 ft 29 kts 262°
2026-05-08 00:20 33.93913 -118.38699 111 ft 95 kts 263°
2026-05-08 00:20 33.93807 -118.39726 113 ft 150 kts 263°
2026-05-08 00:21 33.93668 -118.41143 148 ft 186 kts 262°
2026-05-08 00:21 33.93519 -118.42697 563 ft 190 kts 261°
2026-05-08 00:21 33.93307 -118.44291 992 ft 201 kts 259°
2026-05-08 00:21 33.93021 -118.45944 1523 ft 201 kts 249°
2026-05-08 00:22 33.92241 -118.47334 1969 ft 205 kts 232°
2026-05-08 00:22 33.91294 -118.48748 2092 ft 227 kts 233°
2026-05-08 00:22 33.90258 -118.50253 2485 ft 237 kts 232°
2026-05-08 00:22 33.89159 -118.51812 2847 ft 250 kts 231°
2026-05-08 00:23 33.88026 -118.53421 3405 ft 255 kts 232°
2026-05-08 00:23 33.86826 -118.55019 3878 ft 261 kts 221°
2026-05-08 00:23 33.85151 -118.55942 4332 ft 274 kts 190°
2026-05-08 00:23 33.83240 -118.55795 4909 ft 278 kts 170°
2026-05-08 00:24 33.81331 -118.55264 5449 ft 283 kts 169°
2026-05-08 00:24 33.79406 -118.54724 6115 ft 284 kts 169°
2026-05-08 00:24 33.77509 -118.54198 6731 ft 285 kts 169°
2026-05-08 00:24 33.75560 -118.53665 7246 ft 290 kts 169°
2026-05-08 00:25 33.73574 -118.53127 7794 ft 293 kts 168°
2026-05-08 00:25 33.71593 -118.52558 8328 ft 294 kts 161°
2026-05-08 00:25 33.69844 -118.51267 8711 ft 299 kts 129°
2026-05-08 00:25 33.68806 -118.49154 9344 ft 292 kts 108°
2026-05-08 00:26 33.68125 -118.46847 9896 ft 295 kts 107°
2026-05-08 00:26 33.67450 -118.44497 10311 ft 303 kts 107°
2026-05-08 00:26 33.66737 -118.42031 10460 ft 323 kts 107°
2026-05-08 00:26 33.65982 -118.39453 10619 ft 342 kts 108°
2026-05-08 00:27 33.65166 -118.36687 10789 ft 362 kts 108°
2026-05-08 00:27 33.64408 -118.33761 10948 ft 372 kts 98°
2026-05-08 00:27 33.64330 -118.30639 11356 ft 378 kts 85°
2026-05-08 00:27 33.64441 -118.27479 12088 ft 379 kts 87°
2026-05-08 00:28 33.64473 -118.24318 12937 ft 381 kts 88°
2026-05-08 00:28 33.64547 -118.21136 13476 ft 383 kts 81°
2026-05-08 00:28 33.65410 -118.18098 13973 ft 388 kts 59°
2026-05-08 00:28 33.67041 -118.15585 14712 ft 388 kts 43°
2026-05-08 00:29 33.69146 -118.13553 15284 ft 392 kts 37°
2026-05-08 00:29 33.71368 -118.11604 15853 ft 398 kts 36°
2026-05-08 00:29 33.73612 -118.09664 16625 ft 399 kts 36°
2026-05-08 00:29 33.75872 -118.07696 17298 ft 403 kts 36°
2026-05-08 00:30 33.78143 -118.05692 17915 ft 407 kts 37°
2026-05-08 00:30 33.80432 -118.03652 18522 ft 411 kts 37°
2026-05-08 00:30 33.82732 -118.01590 19125 ft 414 kts 37°
2026-05-08 00:30 33.85013 -117.99537 19699 ft 417 kts 37°
2026-05-08 00:31 33.87345 -117.97438 20268 ft 420 kts 37°
2026-05-08 00:31 33.89693 -117.95324 20847 ft 423 kts 37°
2026-05-08 00:31 33.92054 -117.93189 21420 ft 426 kts 37°
2026-05-08 00:31 33.94425 -117.91024 21964 ft 429 kts 37°
2026-05-08 00:32 33.96813 -117.88836 22516 ft 433 kts 37°
2026-05-08 00:32 33.99217 -117.86635 23049 ft 436 kts 37°
2026-05-08 00:32 34.01644 -117.84414 23606 ft 439 kts 37°
2026-05-08 00:32 34.04051 -117.82209 24001 ft 443 kts 37°
2026-05-08 00:33 34.06505 -117.79960 24460 ft 444 kts 37°
2026-05-08 00:33 34.08959 -117.77670 24923 ft 446 kts 40°
2026-05-08 00:33 34.11140 -117.74986 25243 ft 452 kts 49°
2026-05-08 00:33 34.13090 -117.72005 25698 ft 453 kts 51°
2026-05-08 00:34 34.15010 -117.68981 26143 ft 455 kts 51°
2026-05-08 00:34 34.16960 -117.65945 26523 ft 459 kts 51°
2026-05-08 00:34 34.18946 -117.62918 26908 ft 461 kts 50°
2026-05-08 00:34 34.20937 -117.59931 27285 ft 463 kts 50°
2026-05-08 00:35 34.22976 -117.56898 27636 ft 467 kts 50°
2026-05-08 00:35 34.25034 -117.53842 28015 ft 470 kts 50°
2026-05-08 00:35 34.27100 -117.50770 28389 ft 472 kts 50°
2026-05-08 00:35 34.29173 -117.47680 28734 ft 474 kts 50°
2026-05-08 00:36 34.31252 -117.44577 29061 ft 477 kts 50°
2026-05-08 00:36 34.33341 -117.41455 29411 ft 479 kts 50°
2026-05-08 00:36 34.35413 -117.38357 29699 ft 481 kts 50°
2026-05-08 00:36 34.37548 -117.35160 30031 ft 482 kts 50°
2026-05-08 00:37 34.39623 -117.32052 30404 ft 480 kts 50°
2026-05-08 00:37 34.41716 -117.28913 30788 ft 479 kts 50°
2026-05-08 00:37 34.43806 -117.25774 31149 ft 478 kts 50°
2026-05-08 00:38 34.47966 -117.19522 31802 ft 476 kts 50°
2026-05-08 00:38 34.50042 -117.16398 32116 ft 475 kts 50°
2026-05-08 00:38 34.52113 -117.13278 32421 ft 474 kts 50°
2026-05-08 00:38 34.54178 -117.10166 32712 ft 474 kts 50°
2026-05-08 00:39 34.56263 -117.07071 32892 ft 475 kts 49°
2026-05-08 00:39 34.60493 -117.00933 32925 ft 477 kts 49°
2026-05-08 00:40 34.64720 -116.94806 32914 ft 471 kts 49°
2026-05-08 00:40 34.68894 -116.88719 32934 ft 468 kts 49°
2026-05-08 00:41 34.73048 -116.82640 32934 ft 467 kts 49°
2026-05-08 00:41 34.77166 -116.76601 32953 ft 467 kts 49°
2026-05-08 00:42 34.81315 -116.70507 32953 ft 469 kts 49°
2026-05-08 00:42 34.85479 -116.64383 32939 ft 470 kts 49°
2026-05-08 00:43 34.89774 -116.58452 32928 ft 470 kts 46°
2026-05-08 00:43 34.94224 -116.52621 32909 ft 470 kts 46°
2026-05-08 00:44 34.98665 -116.46759 32891 ft 470 kts 46°
2026-05-08 00:44 35.03075 -116.40866 32882 ft 470 kts 46°
2026-05-08 00:45 35.07436 -116.35005 32875 ft 469 kts 46°
2026-05-08 00:45 35.11817 -116.29105 32874 ft 468 kts 46°
2026-05-08 00:46 35.16189 -116.23209 32884 ft 467 kts 46°
2026-05-08 00:46 35.20546 -116.17325 32886 ft 467 kts 46°
2026-05-08 00:47 35.24869 -116.11477 32881 ft 467 kts 46°
2026-05-08 00:47 35.29225 -116.05576 32888 ft 467 kts 46°
2026-05-08 00:48 35.33577 -115.99668 32893 ft 467 kts 47°
2026-05-08 00:48 35.37930 -115.93750 32907 ft 468 kts 46°
2026-05-08 00:49 35.42255 -115.87858 32922 ft 468 kts 46°
2026-05-08 00:49 35.46606 -115.81920 32931 ft 468 kts 47°
2026-05-08 00:50 35.50955 -115.75975 32925 ft 469 kts 46°
2026-05-08 00:50 35.55313 -115.70007 32945 ft 469 kts 46°
2026-05-08 00:51 35.59632 -115.64083 32957 ft 469 kts 47°
2026-05-08 00:51 35.63980 -115.58106 32943 ft 469 kts 47°
2026-05-08 00:52 35.68320 -115.52132 32945 ft 469 kts 46°
2026-05-08 00:52 35.72661 -115.46145 32954 ft 468 kts 46°
2026-05-08 00:53 35.76987 -115.40160 32973 ft 467 kts 47°
2026-05-08 00:53 35.81267 -115.34229 32958 ft 467 kts 46°
2026-05-08 00:54 35.85573 -115.28250 32956 ft 466 kts 47°
2026-05-08 00:54 35.89877 -115.22264 32966 ft 466 kts 46°
2026-05-08 00:55 35.94173 -115.16279 32964 ft 466 kts 46°
2026-05-08 00:55 35.98444 -115.10318 32965 ft 467 kts 47°
2026-05-08 00:56 36.02750 -115.04298 32962 ft 468 kts 47°
2026-05-08 00:56 36.07054 -114.98268 32919 ft 468 kts 46°
2026-05-08 00:57 36.11360 -114.92224 32853 ft 468 kts 46°
2026-05-08 00:57 36.15668 -114.86168 32847 ft 468 kts 46°
2026-05-08 00:58 36.19863 -114.80076 32830 ft 469 kts 50°
2026-05-08 00:58 36.23733 -114.73551 32826 ft 470 kts 52°
2026-05-08 00:59 36.27511 -114.66954 32802 ft 469 kts 52°
2026-05-08 00:59 36.31318 -114.60389 32797 ft 469 kts 52°
2026-05-08 01:00 36.35126 -114.53893 32804 ft 469 kts 51°
2026-05-08 01:00 36.38972 -114.47343 32807 ft 470 kts 52°
2026-05-08 01:01 36.42818 -114.40781 32807 ft 470 kts 51°
2026-05-08 01:01 36.46659 -114.34209 32802 ft 470 kts 51°
2026-05-08 01:02 36.50495 -114.27632 32814 ft 470 kts 51°
2026-05-08 01:02 36.54304 -114.21090 32827 ft 470 kts 51°
2026-05-08 01:03 36.58138 -114.14491 32830 ft 470 kts 52°
2026-05-08 01:03 36.61959 -114.07900 32843 ft 470 kts 51°
2026-05-08 01:04 36.65792 -114.01279 32856 ft 471 kts 52°
2026-05-08 01:04 36.69594 -113.94700 32846 ft 471 kts 52°
2026-05-08 01:05 36.73418 -113.88062 32856 ft 471 kts 51°
2026-05-08 01:05 36.77241 -113.81422 32862 ft 471 kts 51°
2026-05-08 01:06 36.81060 -113.74774 32890 ft 471 kts 51°
2026-05-08 01:06 36.84849 -113.68162 32907 ft 472 kts 51°
2026-05-08 01:07 36.88660 -113.61497 32927 ft 472 kts 51°
2026-05-08 01:07 36.92469 -113.54824 32936 ft 471 kts 51°
2026-05-08 01:08 36.96272 -113.48149 32946 ft 471 kts 51°
2026-05-08 01:08 37.00069 -113.41472 32941 ft 471 kts 51°
2026-05-08 01:09 37.03834 -113.34839 32912 ft 470 kts 51°
2026-05-08 01:09 37.07610 -113.28171 32930 ft 469 kts 51°
2026-05-08 01:10 37.11388 -113.21488 32997 ft 470 kts 51°
2026-05-08 01:10 37.15165 -113.14793 33005 ft 471 kts 51°
2026-05-08 01:11 37.18952 -113.08068 32997 ft 472 kts 51°
2026-05-08 01:11 37.22711 -113.01379 32986 ft 473 kts 52°
2026-05-08 01:12 37.26499 -112.94621 32965 ft 474 kts 52°
2026-05-08 01:12 37.30293 -112.87842 32957 ft 475 kts 52°
2026-05-08 01:13 37.34088 -112.81047 32969 ft 475 kts 52°
2026-05-08 01:13 37.37861 -112.74277 32969 ft 476 kts 52°
2026-05-08 01:14 37.41654 -112.67458 32976 ft 476 kts 52°
2026-05-08 01:14 37.45442 -112.60633 32983 ft 476 kts 52°
2026-05-08 01:15 37.49232 -112.53791 32985 ft 476 kts 52°
2026-05-08 01:15 37.52995 -112.46983 33025 ft 477 kts 52°
2026-05-08 01:16 37.56780 -112.40121 33075 ft 477 kts 52°
2026-05-08 01:16 37.60558 -112.33257 33132 ft 477 kts 52°
2026-05-08 01:17 37.64337 -112.26358 33177 ft 478 kts 52°
2026-05-08 01:17 37.67947 -112.19309 33198 ft 479 kts 54°
2026-05-08 01:18 37.71466 -112.12236 33194 ft 479 kts 54°
2026-05-08 01:18 37.75018 -112.05129 33200 ft 479 kts 54°
2026-05-08 01:19 37.78575 -111.98049 33145 ft 479 kts 53°
2026-05-08 01:19 37.82125 -111.90982 33105 ft 479 kts 53°
2026-05-08 01:20 37.85696 -111.83860 33059 ft 479 kts 53°
2026-05-08 01:20 37.89266 -111.76719 33011 ft 480 kts 53°
2026-05-08 01:21 37.92832 -111.69575 32994 ft 480 kts 53°
2026-05-08 01:21 37.96393 -111.62419 33016 ft 480 kts 53°
2026-05-08 01:22 37.99926 -111.55305 32992 ft 480 kts 53°
2026-05-08 01:22 38.03483 -111.48131 32991 ft 480 kts 53°
2026-05-08 01:23 38.07035 -111.40948 32989 ft 481 kts 53°
2026-05-08 01:23 38.10587 -111.33750 32989 ft 481 kts 53°
2026-05-08 01:24 38.14116 -111.26583 32974 ft 482 kts 53°
2026-05-08 01:24 38.17644 -111.19400 32956 ft 482 kts 53°
2026-05-08 01:25 38.21183 -111.12183 32967 ft 481 kts 53°
2026-05-08 01:25 38.24717 -111.04954 32963 ft 482 kts 53°
2026-05-08 01:26 38.28256 -110.97702 32968 ft 482 kts 53°
2026-05-08 01:26 38.31768 -110.90490 32991 ft 483 kts 53°
2026-05-08 01:27 38.35300 -110.83219 33015 ft 483 kts 53°
2026-05-08 01:27 38.38827 -110.75943 33028 ft 483 kts 53°
2026-05-08 01:28 38.42257 -110.68565 33024 ft 486 kts 59°
2026-05-08 01:28 38.45013 -110.60728 33036 ft 488 kts 62°
2026-05-08 01:29 38.47709 -110.52772 33004 ft 489 kts 61°
2026-05-08 01:29 38.50435 -110.44814 32972 ft 489 kts 61°
2026-05-08 01:30 38.53179 -110.36856 32945 ft 490 kts 61°
2026-05-08 01:30 38.55911 -110.28923 32914 ft 492 kts 61°
2026-05-08 01:31 38.58657 -110.20921 32913 ft 492 kts 61°
2026-05-08 01:31 38.61401 -110.12898 32920 ft 493 kts 61°
2026-05-08 01:32 38.64144 -110.04853 32946 ft 493 kts 60°
2026-05-08 01:32 38.66868 -109.96851 32972 ft 494 kts 61°
2026-05-08 01:33 38.69610 -109.88774 32999 ft 495 kts 61°
2026-05-08 01:33 38.72352 -109.80672 33015 ft 496 kts 61°
2026-05-08 01:34 38.75091 -109.72554 33007 ft 497 kts 61°
2026-05-08 01:34 38.77805 -109.64484 33004 ft 497 kts 61°
2026-05-08 01:35 38.80533 -109.56353 32999 ft 497 kts 61°
2026-05-08 01:35 38.83259 -109.48206 32971 ft 497 kts 61°
2026-05-08 01:36 38.85980 -109.40047 32943 ft 497 kts 61°
2026-05-08 01:36 38.88678 -109.31939 32924 ft 498 kts 61°
2026-05-08 01:37 38.91389 -109.23765 32932 ft 497 kts 61°
2026-05-08 01:37 38.94095 -109.15583 32926 ft 498 kts 61°
2026-05-08 01:38 38.96795 -109.07394 32937 ft 498 kts 61°
2026-05-08 01:38 38.99491 -108.99197 32937 ft 499 kts 61°
2026-05-08 01:39 39.02169 -108.91028 32957 ft 499 kts 61°
2026-05-08 01:39 39.04862 -108.82795 32984 ft 500 kts 61°
2026-05-08 01:40 39.07552 -108.74543 33013 ft 500 kts 61°
2026-05-08 01:40 39.10240 -108.66274 33035 ft 501 kts 61°
2026-05-08 01:41 39.12925 -108.57995 33038 ft 501 kts 61°
2026-05-08 01:41 39.15588 -108.49755 33041 ft 502 kts 61°
2026-05-08 01:42 39.18261 -108.41457 33036 ft 502 kts 61°
2026-05-08 01:42 39.20934 -108.33137 33021 ft 502 kts 61°
2026-05-08 01:43 39.23605 -108.24794 33001 ft 503 kts 61°
2026-05-08 01:43 39.26258 -108.16492 32989 ft 504 kts 61°
2026-05-08 01:44 39.28924 -108.08114 33000 ft 505 kts 61°
2026-05-08 01:44 39.31590 -107.99714 33017 ft 505 kts 61°
2026-05-08 01:45 39.34251 -107.91306 33040 ft 505 kts 61°
2026-05-08 01:45 39.36883 -107.82965 33070 ft 505 kts 61°
2026-05-08 01:46 39.39526 -107.74563 33082 ft 505 kts 61°
2026-05-08 01:46 39.42169 -107.66136 33081 ft 506 kts 61°
2026-05-08 01:47 39.44811 -107.57682 33072 ft 507 kts 61°
2026-05-08 01:47 39.47432 -107.49270 33059 ft 508 kts 61°
2026-05-08 01:48 39.51392 -107.36521 33028 ft 509 kts 62°
2026-05-08 01:48 39.54025 -107.28004 33040 ft 510 kts 62°
2026-05-08 01:49 39.56640 -107.19520 33062 ft 511 kts 62°
2026-05-08 01:49 39.59271 -107.10956 33104 ft 512 kts 62°
2026-05-08 01:50 39.61899 -107.02378 33126 ft 512 kts 62°
2026-05-08 01:50 39.64794 -106.94015 33136 ft 505 kts 56°
2026-05-08 01:51 39.67997 -106.85912 33142 ft 504 kts 56°
2026-05-08 01:51 39.71183 -106.77857 33125 ft 505 kts 56°
2026-05-08 01:52 39.74359 -106.69731 33101 ft 506 kts 57°
2026-05-08 01:52 39.77529 -106.61551 33069 ft 506 kts 57°
2026-05-08 01:53 39.80687 -106.53368 33041 ft 507 kts 57°
2026-05-08 01:53 39.83821 -106.45227 33048 ft 507 kts 57°
2026-05-08 01:54 39.86978 -106.37015 33049 ft 507 kts 57°
2026-05-08 01:54 39.90129 -106.28794 33059 ft 507 kts 57°
2026-05-08 01:55 39.93271 -106.20573 33096 ft 507 kts 57°
2026-05-08 01:55 39.96411 -106.12332 33139 ft 508 kts 57°
2026-05-08 01:56 39.99546 -106.04080 33172 ft 508 kts 57°
2026-05-08 01:56 40.02658 -105.95873 33193 ft 508 kts 58°
2026-05-08 01:57 40.05776 -105.87618 33174 ft 507 kts 58°
2026-05-08 01:57 40.08888 -105.79359 33184 ft 507 kts 58°
2026-05-08 01:58 40.11998 -105.71088 33136 ft 507 kts 58°
2026-05-08 01:58 40.15074 -105.62880 33104 ft 506 kts 58°
2026-05-08 01:59 40.18164 -105.54613 33014 ft 507 kts 59°
2026-05-08 01:59 40.21262 -105.46306 33010 ft 509 kts 59°
2026-05-08 02:00 40.24343 -105.38016 32989 ft 511 kts 59°
2026-05-08 02:00 40.27448 -105.29638 32999 ft 513 kts 59°
2026-05-08 02:01 40.30559 -105.21217 33000 ft 514 kts 59°
2026-05-08 02:01 40.33672 -105.12766 32992 ft 515 kts 59°
2026-05-08 02:02 40.36784 -105.04291 33002 ft 516 kts 59°
2026-05-08 02:02 40.39872 -104.95860 33003 ft 516 kts 59°
2026-05-08 02:03 40.42973 -104.87370 33012 ft 515 kts 59°
2026-05-08 02:03 40.46061 -104.78888 33010 ft 514 kts 59°
2026-05-08 02:04 40.49135 -104.70421 33022 ft 513 kts 59°
2026-05-08 02:04 40.52197 -104.61964 33022 ft 512 kts 59°
2026-05-08 02:05 40.55224 -104.53580 33015 ft 511 kts 59°
2026-05-08 02:05 40.58260 -104.45145 33011 ft 510 kts 59°
2026-05-08 02:06 40.61288 -104.36709 33012 ft 510 kts 59°
2026-05-08 02:06 40.64310 -104.28264 33010 ft 510 kts 60°
2026-05-08 02:07 40.67309 -104.19859 33003 ft 511 kts 60°
2026-05-08 02:07 40.70328 -104.11373 32994 ft 512 kts 60°
2026-05-08 02:08 40.73343 -104.02874 33001 ft 512 kts 60°
2026-05-08 02:08 40.76355 -103.94355 32988 ft 513 kts 60°
2026-05-08 02:09 40.79345 -103.85873 32970 ft 513 kts 60°
2026-05-08 02:09 40.82348 -103.77332 32941 ft 513 kts 60°
2026-05-08 02:10 40.85345 -103.68780 32937 ft 513 kts 60°
2026-05-08 02:10 40.88333 -103.60224 32936 ft 512 kts 60°
2026-05-08 02:11 40.91311 -103.51677 32933 ft 512 kts 60°
2026-05-08 02:11 40.94258 -103.43189 32939 ft 511 kts 60°
2026-05-08 02:12 40.97217 -103.34645 32928 ft 511 kts 60°
2026-05-08 02:12 41.00168 -103.26097 32939 ft 511 kts 60°
2026-05-08 02:13 41.03113 -103.17539 32955 ft 511 kts 60°
2026-05-08 02:13 41.06030 -103.09036 32969 ft 511 kts 60°
2026-05-08 02:14 41.08964 -103.00461 32965 ft 511 kts 60°
2026-05-08 02:14 41.11974 -102.91953 32967 ft 509 kts 58°
2026-05-08 02:15 41.15154 -102.83579 32963 ft 508 kts 57°
2026-05-08 02:15 41.18317 -102.75259 32944 ft 508 kts 58°
2026-05-08 02:16 41.21461 -102.66864 32916 ft 507 kts 58°
2026-05-08 02:16 41.24576 -102.58470 32895 ft 506 kts 58°
2026-05-08 02:17 41.27680 -102.50073 32896 ft 505 kts 58°
2026-05-08 02:17 41.30772 -102.41694 32896 ft 504 kts 58°
2026-05-08 02:18 41.33834 -102.33373 32905 ft 504 kts 58°
2026-05-08 02:18 41.36909 -102.24997 32896 ft 504 kts 58°
2026-05-08 02:19 41.39978 -102.16610 32901 ft 504 kts 58°
2026-05-08 02:19 41.43040 -102.08216 32886 ft 504 kts 58°
2026-05-08 02:20 41.46077 -101.99868 32889 ft 504 kts 58°
2026-05-08 02:20 41.49131 -101.91448 32886 ft 505 kts 58°
2026-05-08 02:21 41.52185 -101.83005 32895 ft 505 kts 58°
2026-05-08 02:21 41.55234 -101.74546 32884 ft 506 kts 58°
2026-05-08 02:22 41.58263 -101.66121 32884 ft 507 kts 58°
2026-05-08 02:22 41.61308 -101.57624 32879 ft 507 kts 58°
2026-05-08 02:23 41.64347 -101.49119 32878 ft 507 kts 58°
2026-05-08 02:23 41.67379 -101.40605 32868 ft 507 kts 58°
2026-05-08 02:24 41.70404 -101.32088 32866 ft 507 kts 58°
2026-05-08 02:24 41.73400 -101.23628 32863 ft 506 kts 59°
2026-05-08 02:25 41.76410 -101.15099 32867 ft 506 kts 59°
2026-05-08 02:25 41.79413 -101.06570 32868 ft 506 kts 59°
2026-05-08 02:26 41.82256 -100.97913 32873 ft 509 kts 62°
2026-05-08 02:26 41.84838 -100.89124 32891 ft 510 kts 63°
2026-05-08 02:27 41.87410 -100.80249 32898 ft 511 kts 63°
2026-05-08 02:27 41.89997 -100.71376 32913 ft 511 kts 63°
2026-05-08 02:28 41.92595 -100.62496 32928 ft 511 kts 63°
2026-05-08 02:28 41.95173 -100.53666 32928 ft 511 kts 63°
2026-05-08 02:29 41.97756 -100.44783 32929 ft 511 kts 63°
2026-05-08 02:29 42.00341 -100.35858 32916 ft 512 kts 63°
2026-05-08 02:30 42.02916 -100.26934 32907 ft 512 kts 63°
2026-05-08 02:30 42.05483 -100.18010 32891 ft 512 kts 63°
2026-05-08 02:31 42.08025 -100.09140 32885 ft 511 kts 63°
2026-05-08 02:31 42.10577 -100.00205 32890 ft 511 kts 63°
2026-05-08 02:32 42.13124 -99.91258 32883 ft 511 kts 63°
2026-05-08 02:32 42.15663 -99.82301 32889 ft 512 kts 64°
2026-05-08 02:33 42.18180 -99.73395 32894 ft 512 kts 64°
2026-05-08 02:33 42.20711 -99.64410 32898 ft 513 kts 64°
2026-05-08 02:34 42.23237 -99.55407 32902 ft 514 kts 64°
2026-05-08 02:34 42.25761 -99.46379 32901 ft 514 kts 64°
2026-05-08 02:35 42.28278 -99.37341 32904 ft 515 kts 64°
2026-05-08 02:35 42.30777 -99.28336 32902 ft 516 kts 65°
2026-05-08 02:36 42.33290 -99.19249 32904 ft 516 kts 65°
2026-05-08 02:36 42.35794 -99.10162 32906 ft 516 kts 65°
2026-05-08 02:37 42.38294 -99.01056 32906 ft 516 kts 65°
2026-05-08 02:37 42.40768 -98.92009 32909 ft 516 kts 65°
2026-05-08 02:38 42.43255 -98.82881 32911 ft 517 kts 65°
2026-05-08 02:38 42.45724 -98.73789 32913 ft 517 kts 65°
2026-05-08 02:39 42.48393 -98.64787 32917 ft 513 kts 60°
2026-05-08 02:39 42.51494 -98.56091 32917 ft 513 kts 59°
2026-05-08 02:40 42.54625 -98.47397 32904 ft 513 kts 60°
2026-05-08 02:40 42.57722 -98.38673 32908 ft 514 kts 60°
2026-05-08 02:41 42.60776 -98.29973 32917 ft 514 kts 60°
2026-05-08 02:41 42.63844 -98.21196 32926 ft 515 kts 60°
2026-05-08 02:42 42.66906 -98.12410 32928 ft 515 kts 60°
2026-05-08 02:42 42.69947 -98.03665 32933 ft 515 kts 60°
2026-05-08 02:43 42.73002 -97.94850 32929 ft 516 kts 60°
2026-05-08 02:43 42.76052 -97.86021 32933 ft 516 kts 60°
2026-05-08 02:44 42.79097 -97.77178 32928 ft 516 kts 61°
2026-05-08 02:44 42.82135 -97.68328 32921 ft 516 kts 61°
2026-05-08 02:45 42.85145 -97.59532 32921 ft 516 kts 61°
2026-05-08 02:45 42.88171 -97.50661 32909 ft 516 kts 61°
2026-05-08 02:46 42.91188 -97.41786 32910 ft 515 kts 61°
2026-05-08 02:46 42.94172 -97.32977 32912 ft 515 kts 61°
2026-05-08 02:47 42.97169 -97.24103 32914 ft 515 kts 61°
2026-05-08 02:47 43.00160 -97.15218 32920 ft 514 kts 62°
2026-05-08 02:48 43.03141 -97.06336 32911 ft 514 kts 62°
2026-05-08 02:48 43.05610 -96.98956 32934 ft 513 kts 62°
2026-05-08 02:49 43.09052 -96.88632 32935 ft 513 kts 62°
2026-05-08 02:49 43.12003 -96.79751 32919 ft 512 kts 62°
2026-05-08 02:50 43.14942 -96.70876 32918 ft 512 kts 62°
2026-05-08 02:50 43.17382 -96.63488 32913 ft 512 kts 62°
2026-05-08 02:51 43.20784 -96.53150 32916 ft 512 kts 62°
2026-05-08 02:51 43.23702 -96.44250 32925 ft 512 kts 63°
2026-05-08 02:52 43.26125 -96.36839 32922 ft 512 kts 63°
2026-05-08 02:52 43.29035 -96.27915 32923 ft 512 kts 63°
2026-05-08 02:53 43.31918 -96.18966 32918 ft 513 kts 63°
2026-05-08 02:53 43.35239 -96.08532 32912 ft 513 kts 63°
2026-05-08 02:54 43.37610 -96.01061 32912 ft 513 kts 63°
2026-05-08 02:54 43.40460 -95.92068 32909 ft 513 kts 63°
2026-05-08 02:55 43.44725 -95.78558 32914 ft 513 kts 63°
2026-05-08 02:56 43.47561 -95.69538 32918 ft 514 kts 63°
2026-05-08 02:56 43.50371 -95.60569 32911 ft 514 kts 63°
2026-05-08 02:57 43.53196 -95.51518 32910 ft 514 kts 63°
2026-05-08 02:57 43.56015 -95.42458 32914 ft 514 kts 63°
2026-05-08 02:58 43.58828 -95.33382 32915 ft 515 kts 63°
2026-05-08 02:58 43.61617 -95.24356 32925 ft 515 kts 63°
2026-05-08 02:59 43.64421 -95.15250 32925 ft 516 kts 63°
2026-05-08 02:59 43.67218 -95.06131 32933 ft 516 kts 63°
2026-05-08 03:00 43.70012 -94.96992 32929 ft 516 kts 63°
2026-05-08 03:00 43.72779 -94.87910 32927 ft 517 kts 63°
2026-05-08 03:01 43.75562 -94.78739 32926 ft 517 kts 63°
2026-05-08 03:01 43.78339 -94.69560 32913 ft 517 kts 63°
2026-05-08 03:02 43.81107 -94.60376 32916 ft 517 kts 63°
2026-05-08 03:02 43.83851 -94.51238 32920 ft 518 kts 63°
2026-05-08 03:03 43.86609 -94.42021 32923 ft 518 kts 63°
2026-05-08 03:03 43.89363 -94.32784 32913 ft 518 kts 63°
2026-05-08 03:04 43.92110 -94.23534 32915 ft 519 kts 63°
2026-05-08 03:04 43.94851 -94.14274 32925 ft 519 kts 63°
2026-05-08 03:05 43.97568 -94.05062 32928 ft 519 kts 63°
2026-05-08 03:05 44.00294 -93.95786 32929 ft 519 kts 63°
2026-05-08 03:06 44.02793 -93.86341 32933 ft 522 kts 66°
2026-05-08 03:06 44.05092 -93.76766 32938 ft 522 kts 67°
2026-05-08 03:07 44.07383 -93.67255 32939 ft 522 kts 66°
2026-05-08 03:07 44.09726 -93.57695 32943 ft 522 kts 66°
2026-05-08 03:08 44.12081 -93.48133 32940 ft 522 kts 66°
2026-05-08 03:08 44.14427 -93.38563 32937 ft 523 kts 66°
2026-05-08 03:09 44.16749 -93.29042 32934 ft 523 kts 66°
2026-05-08 03:09 44.19080 -93.19438 33136 ft 525 kts 66°
2026-05-08 03:09 44.20243 -93.14625 33524 ft 523 kts 66°
2026-05-08 03:10 44.21399 -93.09827 33919 ft 521 kts 66°
2026-05-08 03:10 44.22549 -93.05045 34200 ft 521 kts 66°
2026-05-08 03:10 44.23700 -93.00256 34437 ft 521 kts 66°
2026-05-08 03:10 44.24851 -92.95459 34650 ft 522 kts 66°
2026-05-08 03:11 44.26001 -92.90659 34845 ft 522 kts 66°
2026-05-08 03:11 44.28289 -92.81070 34932 ft 524 kts 66°
2026-05-08 03:12 44.30575 -92.71437 34920 ft 522 kts 66°
2026-05-08 03:12 44.32846 -92.61828 34929 ft 520 kts 66°
2026-05-08 03:13 44.35104 -92.52238 34926 ft 520 kts 66°
2026-05-08 03:13 44.37340 -92.42705 34930 ft 520 kts 66°
2026-05-08 03:14 44.39585 -92.33089 34931 ft 521 kts 66°
2026-05-08 03:14 44.41828 -92.23439 34928 ft 522 kts 66°
2026-05-08 03:15 44.44068 -92.13759 34932 ft 524 kts 66°
2026-05-08 03:15 44.46290 -92.04112 34933 ft 525 kts 66°
2026-05-08 03:16 44.48521 -91.94381 34934 ft 526 kts 66°
2026-05-08 03:16 44.50749 -91.84625 34928 ft 526 kts 66°
2026-05-08 03:17 44.52969 -91.74852 34927 ft 526 kts 66°
2026-05-08 03:17 44.55179 -91.65082 34923 ft 526 kts 66°
2026-05-08 03:18 44.57366 -91.55373 34920 ft 526 kts 66°